TimeHST,TemperatureF,Dew PointF,Humidity,Sea Level PressureIn,VisibilityMPH,Wind Direction,Wind SpeedMPH,Gust SpeedMPH,PrecipitationIn,Events,Conditions,WindDirDegrees,DateUTC
12:54 AM,68.0,55.0,63,30.05,10.0,North,12.7,20.7,N/A,,Mostly Cloudy,360,2013-01-20 10:54:00
1:54 AM,68.0,55.0,63,30.03,10.0,North,12.7,19.6,N/A,,Scattered Clouds,10,2013-01-20 11:54:00
2:54 AM,66.9,53.1,61,30.02,10.0,North,11.5,-,N/A,,Partly Cloudy,360,2013-01-20 12:54:00
3:54 AM,66.9,53.1,61,30.01,10.0,North,8.1,20.7,N/A,,Scattered Clouds,360,2013-01-20 13:54:00
4:54 AM,66.9,53.1,61,30.01,10.0,North,15.0,23.0,N/A,,Partly Cloudy,350,2013-01-20 14:54:00
5:54 AM,66.9,54.0,63,30.03,10.0,North,13.8,21.9,N/A,,Clear,350,2013-01-20 15:54:00
6:54 AM,68.0,54.0,61,30.06,10.0,North,12.7,21.9,N/A,,Partly Cloudy,10,2013-01-20 16:54:00
7:54 AM,69.1,55.0,61,30.07,10.0,North,11.5,18.4,N/A,,Clear,360,2013-01-20 17:54:00
8:54 AM,71.1,55.0,57,30.08,10.0,North,13.8,23.0,N/A,,Partly Cloudy,10,2013-01-20 18:54:00
9:21 AM,71.6,53.6,53,30.08,10.0,North,13.8,21.9,N/A,,Scattered Clouds,10,2013-01-20 19:21:00
9:54 AM,72.0,54.0,53,30.10,10.0,North,12.7,24.2,N/A,,Scattered Clouds,10,2013-01-20 19:54:00
10:54 AM,73.9,55.0,52,30.09,10.0,NNE,15.0,24.2,N/A,,Scattered Clouds,20,2013-01-20 20:54:00
11:54 AM,73.9,55.9,53,30.08,10.0,North,15.0,23.0,N/A,,Scattered Clouds,10,2013-01-20 21:54:00
12:54 PM,73.9,57.0,55,30.05,10.0,NNE,12.7,24.2,N/A,,Partly Cloudy,20,2013-01-20 22:54:00
1:54 PM,73.9,55.0,52,30.02,10.0,North,15.0,25.3,N/A,,Clear,10,2013-01-20 23:54:00
2:54 PM,73.9,57.0,55,30.01,10.0,North,13.8,23.0,N/A,,Partly Cloudy,10,2013-01-21 00:54:00
3:54 PM,73.0,57.9,59,30.01,10.0,NNE,11.5,23.0,N/A,,Partly Cloudy,30,2013-01-21 01:54:00
4:54 PM,72.0,55.0,55,30.03,10.0,North,10.4,18.4,N/A,,Clear,10,2013-01-21 02:54:00
5:54 PM,70.0,55.0,59,30.04,10.0,North,10.4,17.3,N/A,,Partly Cloudy,10,2013-01-21 03:54:00
6:54 PM,69.1,55.0,61,30.05,10.0,NNE,6.9,-,N/A,,Clear,20,2013-01-21 04:54:00
7:54 PM,68.0,55.0,63,30.08,10.0,North,10.4,-,N/A,,Partly Cloudy,10,2013-01-21 05:54:00
8:54 PM,69.1,54.0,58,30.09,10.0,NNE,9.2,-,N/A,,Partly Cloudy,20,2013-01-21 06:54:00
9:54 PM,69.1,55.0,61,30.10,10.0,North,6.9,-,N/A,,Scattered Clouds,10,2013-01-21 07:54:00
10:54 PM,69.1,55.0,61,30.09,10.0,NNE,9.2,19.6,N/A,,Scattered Clouds,20,2013-01-21 08:54:00
11:54 PM,69.1,54.0,58,30.09,10.0,NNE,9.2,17.3,N/A,,Mostly Cloudy,20,2013-01-21 09:54:00